Location: Maiden
(35.5760°N, 81.2120°W)
Time: 03:16:09
(UTC-04:00)

Vanguard 2 - Pass Details

Date: 08 August 2020
Orbit: 553 x 2937 km, 32.9° (Epoch: 20 September)

Event Time Altitude Azimuth Distance (km) Brightness Sun altitude
Rises 01:34:07 0° 272° (W) 6,031 12.1 -38.4°
Reaches altitude 10° 01:38:40 10° 271° (W) 4,680 11.5 -38.4°
Enters shadow 01:44:42 31° 266° (W) 2,835 10.2 -38.3°
Maximum altitude 01:50:42 73° 189° (S) 1,494 - -38.2°
Drops below altitude 10° 01:57:39 10° 106° (ESE) 2,817 - -38.0°
Sets 01:59:47 0° 104° (ESE) 3,547 - -38.0°
